Location: Al ?illah
(25.2844°N, 32.5838°E)
Time: 02:28:45
(UTC+00:00)

Daily predictions for brighter satellites

Satellite Brightness Start Highest point End
(mag) Time Altitude Azimuth Time Altitude Azimuth Time Altitude Azimuth
Cosmos 2061 Rocket 4.1 00:00:44 10° N 00:06:56 75° ENE 00:06:56 75° ENE
USA 215 4.3 00:02:44 10° ENE 00:08:28 32° SE 00:08:43 32° SE
Cosmos 2263 Rocket 4.2 00:11:47 16° ESE 00:13:11 18° E 00:16:46 10° ENE
Cosmos 2219 3.5 00:25:32 59° NNW 00:25:32 59° NNW 00:30:20 10° NNE
Cosmos 2297 Rocket 3.4 00:28:20 30° NW 00:28:20 30° NW 00:32:14 10° N
COSMOS 2428 4.0 00:23:05 10° NNW 00:25:58 29° NW 00:25:58 29° NW
IRS-1D 3.7 00:24:01 10° NNE 00:28:08 62° NNE 00:28:08 62° NNE
Resurs 1-4 Rocket 4.2 00:26:18 10° NNW 00:28:01 15° NW 00:28:01 15° NW
Cosmos 44 Rocket 3.9 00:31:42 51° N 00:31:42 51° N 00:35:26 10° NNE
SL-16 R/B 3.0 00:32:07 47° WNW 00:32:07 47° WNW 00:37:01 10° NNW
CZ-2D R/B 4.2 00:28:24 10° NNW 00:29:57 15° NW 00:29:57 15° NW
Cosmos 2237 Rocket 2.9 00:26:56 10° N 00:32:25 49° ENE 00:35:56 21° SE
Meteor 1-20 Rocket 4.2 00:35:01 70° NW 00:35:01 70° NW 00:40:04 10° N
ALOS 3.7 00:30:58 10° NE 00:35:02 30° E 00:35:55 28° ESE
ARIANE 5 R/B 4.4 00:34:39 10° NE 00:38:37 23° E 00:41:10 16° SE
Cosmos 1666 4.1 00:40:04 36° NE 00:40:04 36° NE 00:42:30 10° NNE
NOSS 0 Rocket 3.7 00:38:48 10° NNW 00:44:56 75° WSW 00:45:39 67° SSW
MSX 4.5 00:43:28 10° N 00:48:34 39° WNW 00:48:34 39° WNW
CZ-2C R/B 3.3 00:45:12 10° NNE 00:49:27 39° E 00:50:36 33° SE
Meteor 1-27 Rocket 3.5 00:44:57 10° NNW 00:50:30 73° W 00:50:45 71° WSW
Cosmos 1515 Rocket 3.7 00:49:28 10° N 00:53:12 65° NNW 00:53:12 65° NNW
Cosmos 1544 4.2 00:54:44 40° ENE 00:54:44 40° ENE 00:57:43 10° NNE
Cosmos 1805 Rocket 3.6 00:55:25 72° ESE 00:55:36 74° E 00:59:59 10° N
Cosmos 2346 Rocket 4.4 00:55:53 42° S 00:58:07 80° E 01:04:13 10° N
Sich 1 3.3 00:57:51 55° SE 00:58:24 60° E 01:02:37 10° NNE
CBERS-1 3.9 00:53:25 10° N 00:58:33 75° WNW 00:59:07 67° SW
Cosmos 1743 Rocket 3.7 00:59:20 59° NW 00:59:20 59° NW 01:03:12 10° N
Okean 1 4.0 00:58:24 10° N 01:02:13 50° E 01:03:11 40° SE
ADEOS II 4.0 01:00:59 10° NW 01:03:15 15° WNW 01:03:15 15° WNW
PAYLOAD A 4.4 00:59:27 10° NNE 01:04:50 65° ESE 01:07:15 33° S
ATLAS CENTAUR R/B 2.0 01:04:01 47° SSE 01:04:51 55° ESE 01:09:29 10° NE
Meteor 1-5 Rocket 4.3 01:04:08 33° SSE 01:06:30 65° E 01:11:44 10° NNE
Timation 2 Rocket 3.9 01:09:40 41° SSW 01:12:01 88° WNW 01:18:27 10° NNE
Cosmos 2228 Rocket 4.3 01:10:45 10° NNE 01:14:58 41° E 01:19:12 10° SSE
ATLAS 3B R/B 3.6 01:13:42 17° S 01:18:06 40° ESE 01:24:09 10° NE
IRS-P3 4.2 01:15:35 10° NNE 01:20:54 77° ESE 01:23:57 26° S
FUSE 3.8 01:19:32 38° W 01:21:39 88° S 01:27:01 10° E
Meteor 1-19 Rocket 4.3 01:16:32 10° N 01:22:34 78° W 01:27:15 17° S
MOS 1-B Rocket 4.4 01:19:17 24° S 01:23:20 59° W 01:30:49 10° NNW
Cosmos 389 Rocket 4.0 01:22:53 18° SSE 01:24:55 33° E 01:28:06 10° NNE
Cosmos 1315 Rocket 2.8 01:26:26 53° WSW 01:26:59 59° W 01:30:54 10° N
Cosmos 921 Rocket 3.3 01:27:45 44° WSW 01:28:44 53° WNW 01:33:07 10° N
Cosmos 1125 Rocket 3.8 01:24:13 10° N 01:29:30 69° ENE 01:34:46 10° SSE
Cosmos 2150 Rocket 4.5 01:24:29 10° N 01:29:52 64° ENE 01:35:15 10° SSE
IUS-13 SRM-1 3.6 01:31:21 14° ESE 01:31:21 14° ESE 01:31:45 10° ESE
COSMOS 2455 2.8 01:24:17 10° NNW 01:30:11 63° WSW 01:36:05 10° S
Cosmos 1980 4.2 01:28:46 10° NW 01:33:54 36° WSW 01:35:37 30° SW
ASTRO E2 3.3 01:36:16 34° S 01:36:16 34° S 01:39:21 10° SE
Cosmos 2098 Rocket 3.7 01:37:14 22° NW 01:37:14 22° NW 01:38:47 10° NNW
Helios 1B rocket 3.3 01:33:44 10° NNW 01:37:20 31° WNW 01:37:52 29° W
Cosmos 405 3.1 01:40:52 43° WSW 01:41:19 46° W 01:44:37 10° N
FENGYUN 3A 4.3 01:37:29 10° N 01:42:25 37° WNW 01:44:44 25° WSW
Cosmos 773 Rocket 4.0 01:39:52 26° SSW 01:42:45 66° WNW 01:47:55 10° N
Meteor 1-29 2.7 01:42:02 10° N 01:45:22 81° WNW 01:46:56 29° SSW
MDS-1 3.2 01:46:57 75° S 01:46:59 76° SSE 01:49:40 10° ENE
Cosmos 1816 Rocket 4.5 01:42:17 17° SSW 01:47:04 65° W 01:53:09 10° N
Cosmos 2227 4.2 01:44:55 19° SSW 01:49:09 85° WNW 01:54:55 10° NNE
SL-16 R/B 2.4 01:43:57 10° NNW 01:49:39 76° ENE 01:55:18 10° SSE
USA 215 3.7 01:45:12 10° NNE 01:51:25 48° NW 01:56:04 18° WSW
Cosmos 1461 3.0 01:52:35 18° SSW 01:55:22 64° ESE 01:59:14 10° NNE
Cosmos 2263 Rocket 2.7 01:53:30 22° SW 01:56:41 40° WNW 02:01:55 10° N
CZ-3C R/B 3.6 01:52:54 19° WSW 01:57:01 63° S 09:53:16 10° SE
Centaur D-1AR AC-36 4.3 01:53:05 16° SSW 01:58:51 45° SE 11:40:40 10° SE
Sakura Rocket 3.0 02:02:03 18° W 02:04:32 40° SSW 02:07:56 10° SE
Tsikada Rocket 4.1 02:00:43 10° SSW 02:06:55 61° W 02:13:03 10° N
Meteor 2-4 Rocket 3.8 02:02:34 10° NNW 02:08:07 58° W 02:13:47 10° S
Cosmos 332 Rocket 3.7 02:05:28 10° NNW 02:10:22 76° WSW 02:15:14 10° S
Cosmos 1633 Rocket 3.5 02:07:41 14° SSW 02:11:09 41° W 02:15:15 10° NNW
ALOS 3.9 02:09:02 10° NNW 02:12:06 18° WNW 02:14:24 13° WSW
CZ-2C R/B 3.1 02:09:22 10° NNE 02:13:19 69° E 02:17:18 10° S
SL-08 R/B 3.5 02:10:14 10° SSE 02:15:04 83° ENE 02:19:59 10° N
DELTA 2 DEB (DPAF) 4.1 02:10:50 10° S 02:15:09 58° W 02:19:29 10° NNW
Cosmos 2237 Rocket 3.7 02:13:04 10° WNW 02:15:55 14° W 02:17:34 13° WSW
Cosmos 1346 Rocket 4.4 02:13:52 10° NW 02:16:25 17° W 02:18:00 14° WSW
ARIANE 5 R/B 3.6 02:13:19 10° NNW 02:17:33 27° WNW 02:21:29 11° SW
CZ-2D R/B 4.5 02:15:06 10° NNW 02:18:48 30° WNW 02:22:21 11° SW
Cosmos 1844 Rocket 3.6 02:13:54 10° S 02:19:15 48° ESE 02:24:36 10° NNE
OAO 3 Rocket 4.3 02:15:33 10° NW 02:20:19 46° NNE 02:25:02 10° E
Cosmos 1536 2.8 02:17:35 10° SSW 02:21:33 63° W 02:25:34 10° N
CZ-4B R/B 3.6 02:17:30 10° NNE 02:22:34 76° ESE 02:27:27 10° S
Cosmos 1862 Rocket 3.5 02:19:52 10° N 02:24:11 88° W 02:28:30 10° S
Meteor 1-11 Rocket 3.9 02:18:54 10° SSW 02:24:48 65° W 02:30:42 10° N
Envisat 3.0 02:20:27 10° N 02:25:31 76° WNW 02:30:34 10° SSW
GPS 2-15 Rocket1 3.9 02:21:47 12° WSW 02:25:57 39° S 02:30:24 10° ESE
CZ-2C R/B 4.2 02:25:16 10° NW 02:27:16 13° WNW 02:29:16 10° W
Spot 4 Rocket 4.4 02:24:19 10° N 02:29:13 47° WNW 02:34:07 10° SSW
SJ-6F 4.5 02:26:36 10° NNE 02:30:41 84° ESE 02:34:43 10° S
Cosmos 2034 Rocket 4.5 02:28:20 10° NNW 02:33:58 39° W 02:39:35 10° SSW
MINOTAUR 4 R/B 4.1 02:30:30 10° SSE 02:34:00 84° ENE 02:37:30 10° N
Lacrosse 4 Rocket 1.5 02:30:58 10° NW 02:34:54 48° WSW 02:38:54 10° S
YAOGAN 6 3.2 02:32:36 10° N 02:35:53 36° WNW 02:39:07 10° SW
Cosmos 1933 Rocket 3.6 02:32:29 10° S 02:36:55 72° W 02:41:21 10° N
BREEZE-M DEB (TANK) 4.5 02:40:09 10° NW 02:59:06 76° NE 03:03:34 10° SE
